| time (UTC) | temp C | wind direction | speed KPH | gust KPH | rain 1hr cm | rain 24hr cm | rain mn cm | humidity % | barometer mb |
| 20260507074549 | 10 | 65 | 4.8 | 8.0 | 0.00 | 0.00 | 0.00 | 81 | 1015.0 |
| 20260507073049 | 10 | 72 | 1.6 | 8.0 | 0.00 | 0.00 | 0.00 | 83 | 1015.0 |
| 20260507071548 | 10 | 46 | 3.2 | 8.0 | 0.00 | 0.00 | 0.00 | 84 | 1014.9 |
| 20260507070103 | 9 | 69 | 3.2 | 8.0 | 0.00 | 0.00 | 0.00 | 85 | 1014.9 |
| 20260507064626 | 9 | 75 | 3.2 | 9.7 | 0.00 | 0.00 | 0.00 | 85 | 1014.8 |
| 20260507063058 | 8 | 80 | 1.6 | 8.0 | 0.00 | 0.00 | 0.00 | 86 | 1014.8 |
| 20260507061552 | 8 | 77 | 3.2 | 8.0 | 0.00 | 0.00 | 0.00 | 86 | 1014.6 |
| 20260507060111 | 8 | 61 | 3.2 | 9.7 | 0.00 | 0.00 | 0.00 | 87 | 1014.6 |
| 20260507054609 | 8 | 68 | 3.2 | 9.7 | 0.00 | 0.00 | 0.00 | 87 | 1014.5 |
| 20260507053051 | 8 | 75 | 3.2 | 8.0 | 0.00 | 0.00 | 0.00 | 87 | 1014.3 |
| 20260507051604 | 8 | 50 | 1.6 | 8.0 | 0.00 | 0.00 | 0.00 | 87 | 1014.3 |
| 20260507050055 | 8 | 87 | 1.6 | 6.4 | 0.00 | 0.00 | 0.00 | 87 | 1014.1 |
| 20260507044550 | 8 | 29 | 1.6 | 4.8 | 0.00 | 0.00 | 0.00 | 87 | 1014.1 |
| 20260507043056 | 7 | 0 | 0.0 | 3.2 | 0.00 | 0.00 | 0.00 | 87 | 1014.0 |
| 20260507041547 | 8 | 0 | 0.0 | 4.8 | 0.00 | 0.00 | 0.00 | 87 | 1014.0 |
| 20260507040049 | 8 | 69 | 0.0 | 6.4 | 0.00 | 0.00 | 0.00 | 87 | 1013.8 |
| 20260507034551 | 8 | 38 | 1.6 | 4.8 | 0.00 | 0.00 | 0.00 | 87 | 1014.0 |
| 20260507033050 | 8 | 75 | 1.6 | 4.8 | 0.00 | 0.00 | 0.00 | 87 | 1013.9 |
| 20260507031548 | 8 | 0 | 0.0 | 1.6 | 0.00 | 0.00 | 0.00 | 87 | 1013.9 |
| 20260507030053 | 8 | 0 | 0.0 | 0.0 | 0.00 | 0.00 | 0.00 | 87 | 1013.9 |
| 20260507024555 | 8 | 0 | 0.0 | 6.4 | 0.00 | 0.00 | 0.00 | 87 | 1013.9 |
| 20260507023051 | 8 | 0 | 1.6 | 4.8 | 0.00 | 0.00 | 0.00 | 87 | 1013.8 |
| 20260507021553 | 8 | 0 | 0.0 | 0.0 | 0.00 | 0.00 | 0.00 | 87 | 1013.7 |
| 20260507020108 | 8 | 0 | 0.0 | 6.4 | 0.00 | 0.00 | 0.00 | 87 | 1013.7 |
| 20260507014556 | 8 | 80 | 1.6 | 4.8 | 0.00 | 0.00 | 0.00 | 86 | 1013.6 |
| 20260507013047 | 8 | 77 | 1.6 | 6.4 | 0.00 | 0.00 | 0.00 | 86 | 1013.6 |
| 20260507011547 | 8 | 64 | 1.6 | 6.4 | 0.00 | 0.00 | 0.00 | 86 | 1013.6 |
| 20260507010059 | 8 | 94 | 1.6 | 6.4 | 0.00 | 0.00 | 0.00 | 86 | 1013.6 |
| 20260507004551 | 8 | 79 | 1.6 | 3.2 | 0.00 | 0.00 | 0.00 | 86 | 1013.6 |
| 20260507003050 | 9 | 82 | 1.6 | 4.8 | 0.00 | 0.00 | 0.00 | 85 | 1013.6 |
| 20260507001557 | 9 | 65 | 1.6 | 4.8 | 0.00 | 0.00 | 0.00 | 85 | 1013.6 |
| 20260507000048 | 9 | 0 | 3.2 | 8.0 | 0.00 | 0.00 | 0.00 | 85 | 1013.7 |
| 20260506234558 | 9 | 70 | 3.2 | 6.4 | 0.00 | 0.00 | 0.00 | 85 | 1013.6 |
| 20260506233052 | 9 | 80 | 1.6 | 4.8 | 0.00 | 0.00 | 0.00 | 85 | 1013.6 |
| 20260506231607 | 9 | 95 | 1.6 | 6.4 | 0.00 | 0.00 | 0.00 | 85 | 1013.6 |
| 20260506230109 | 9 | 67 | 0.0 | 4.8 | 0.00 | 0.00 | 0.00 | 85 | 1013.6 |
| 20260506224553 | 9 | 50 | 1.6 | 8.0 | 0.00 | 0.00 | 0.00 | 85 | 1013.6 |
| 20260506223055 | 10 | 79 | 1.6 | 4.8 | 0.00 | 0.00 | 0.00 | 86 | 1013.5 |
| 20260506221610 | 10 | 70 | 0.0 | 3.2 | 0.00 | 0.00 | 0.00 | 85 | 1013.4 |
| 20260506220110 | 10 | 0 | 0.0 | 1.6 | 0.00 | 0.00 | 0.00 | 85 | 1013.5 |
| 20260506214550 | 10 | 70 | 0.0 | 4.8 | 0.00 | 0.00 | 0.00 | 84 | 1013.4 |
| 20260506213103 | 10 | 81 | 0.0 | 3.2 | 0.00 | 0.00 | 0.00 | 84 | 1013.4 |
| 20260506211547 | 10 | 68 | 3.2 | 4.8 | 0.00 | 0.00 | 0.00 | 83 | 1013.3 |
| 20260506210055 | 10 | 65 | 1.6 | 4.8 | 0.00 | 0.00 | 0.00 | 84 | 1013.3 |
| 20260506204548 | 10 | 0 | 1.6 | 6.4 | 0.00 | 0.00 | 0.00 | 83 | 1013.2 |
| 20260506203052 | 10 | 53 | 3.2 | 6.4 | 0.00 | 0.00 | 0.00 | 82 | 1013.0 |
| 20260506201552 | 10 | 86 | 4.8 | 9.7 | 0.00 | 0.00 | 0.00 | 80 | 1012.8 |
| 20260506200052 | 11 | 74 | 3.2 | 8.0 | 0.00 | 0.00 | 0.00 | 77 | 1012.7 |
| 20260506194552 | 11 | 73 | 0.0 | 4.8 | 0.00 | 0.00 | 0.00 | 75 | 1012.5 |
| 20260506193050 | 11 | 76 | 1.6 | 3.2 | 0.00 | 0.00 | 0.00 | 74 | 1012.3 |
| 20260506191553 | 11 | 0 | 0.0 | 3.2 | 0.00 | 0.00 | 0.00 | 74 | 1012.4 |
| 20260506190057 | 11 | 0 | 0.0 | 3.2 | 0.00 | 0.00 | 0.00 | 74 | 1012.2 |
| 20260506184605 | 11 | 85 | 1.6 | 4.8 | 0.00 | 0.00 | 0.00 | 74 | 1012.1 |
| 20260506183051 | 11 | 56 | 0.0 | 3.2 | 0.00 | 0.00 | 0.00 | 73 | 1012.0 |
| 20260506181552 | 11 | 0 | 1.6 | 3.2 | 0.00 | 0.00 | 0.00 | 73 | 1011.9 |
| 20260506180057 | 11 | 70 | 1.6 | 4.8 | 0.00 | 0.00 | 0.00 | 73 | 1011.8 |
| 20260506174551 | 11 | 70 | 1.6 | 6.4 | 0.00 | 0.00 | 0.00 | 75 | 1011.6 |
| 20260506173053 | 11 | 74 | 1.6 | 4.8 | 0.00 | 0.00 | 0.00 | 75 | 1011.6 |
| 20260506171558 | 11 | 80 | 3.2 | 8.0 | 0.00 | 0.00 | 0.00 | 76 | 1011.6 |
| 20260506170100 | 11 | 53 | 0.0 | 4.8 | 0.00 | 0.00 | 0.00 | 77 | 1011.6 |
| 20260506164608 | 11 | 70 | 3.2 | 8.0 | 0.00 | 0.00 | 0.00 | 76 | 1011.5 |
| 20260506163047 | 11 | 69 | 3.2 | 9.7 | 0.00 | 0.00 | 0.00 | 74 | 1011.7 |
| 20260506161553 | 11 | 89 | 4.8 | 14.5 | 0.00 | 0.00 | 0.00 | 77 | 1011.5 |
| 20260506154550 | 11 | 0 | 1.6 | 9.7 | 0.00 | 0.00 | 0.00 | 82 | 1011.6 |
| 20260506153046 | 11 | 68 | 4.8 | 9.7 | 0.00 | 0.00 | 0.00 | 82 | 1011.5 |
| 20260506151556 | 11 | 58 | 6.4 | 16.1 | 0.00 | 0.00 | 0.00 | 76 | 1011.5 |
| 20260506150053 | 12 | 86 | 4.8 | 11.3 | 0.00 | 0.00 | 0.00 | 65 | 1011.4 |
| 20260506144559 | 12 | 0 | 1.6 | 9.7 | 0.00 | 0.00 | 0.00 | 65 | 1011.3 |
| 20260506143050 | 12 | 69 | 3.2 | 9.7 | 0.00 | 0.00 | 0.00 | 64 | 1011.3 |
| 20260506141549 | 13 | 173 | 1.6 | 8.0 | 0.00 | 0.00 | 0.00 | 64 | 1011.3 |
| 20260506140048 | 13 | 104 | 1.6 | 9.7 | 0.00 | 0.00 | 0.00 | 63 | 1011.3 |
| 20260506134547 | 12 | 138 | 1.6 | 9.7 | 0.00 | 0.00 | 0.00 | 65 | 1011.3 |
| 20260506133052 | 12 | 230 | 1.6 | 8.0 | 0.00 | 0.00 | 0.00 | 68 | 1011.4 |
| 20260506131557 | 12 | 8 | 3.2 | 14.5 | 0.00 | 0.00 | 0.00 | 69 | 1011.4 |
| 20260506130049 | 12 | 196 | 3.2 | 9.7 | 0.00 | 0.00 | 0.00 | 68 | 1011.4 |
| 20260506124552 | 12 | 103 | 1.6 | 12.9 | 0.00 | 0.00 | 0.00 | 68 | 1011.3 |
| 20260506123051 | 12 | 105 | 3.2 | 9.7 | 0.00 | 0.00 | 0.00 | 66 | 1011.2 |
| 20260506121553 | 12 | 127 | 3.2 | 11.3 | 0.00 | 0.00 | 0.00 | 66 | 1011.3 |
| 20260506120052 | 12 | 38 | 3.2 | 9.7 | 0.00 | 0.00 | 0.00 | 68 | 1011.3 |
| 20260506114555 | 12 | 129 | 4.8 | 14.5 | 0.00 | 0.00 | 0.00 | 68 | 1011.2 |
| 20260506113050 | 13 | 110 | 4.8 | 11.3 | 0.00 | 0.00 | 0.00 | 64 | 1011.3 |
| 20260506111550 | 13 | 29 | 3.2 | 9.7 | 0.00 | 0.00 | 0.00 | 60 | 1011.2 |
| 20260506110047 | 13 | 67 | 3.2 | 9.7 | 0.00 | 0.00 | 0.00 | 62 | 1011.2 |
| 20260506104553 | 12 | 209 | 4.8 | 12.9 | 0.00 | 0.00 | 0.00 | 63 | 1011.2 |
| 20260506103053 | 13 | 147 | 3.2 | 11.3 | 0.00 | 0.00 | 0.00 | 63 | 1011.3 |
| 20260506101547 | 12 | 87 | 4.8 | 11.3 | 0.00 | 0.00 | 0.00 | 63 | 1011.3 |
| 20260506100105 | 12 | 102 | 3.2 | 12.9 | 0.00 | 0.00 | 0.00 | 65 | 1011.4 |
| 20260506094551 | 12 | 84 | 3.2 | 12.9 | 0.00 | 0.00 | 0.00 | 67 | 1011.5 |
| 20260506093056 | 12 | 248 | 3.2 | 14.5 | 0.00 | 0.00 | 0.00 | 67 | 1011.3 |
| 20260506091547 | 11 | 95 | 3.2 | 12.9 | 0.00 | 0.00 | 0.00 | 69 | 1011.3 |
| 20260506090047 | 11 | 66 | 3.2 | 12.9 | 0.00 | 0.00 | 0.00 | 72 | 1011.3 |
| 20260506084553 | 10 | 238 | 3.2 | 12.9 | 0.00 | 0.00 | 0.00 | 73 | 1011.2 |
| 20260506083050 | 11 | 226 | 3.2 | 16.1 | 0.00 | 0.00 | 0.00 | 72 | 1011.1 |
| 20260506081550 | 11 | 91 | 4.8 | 12.9 | 0.00 | 0.00 | 0.00 | 73 | 1011.1 |